Regional Weather Roundup
Issued by NWS

Home | Current Version | Previous Version | Text Only | Print | Product List | Glossary Off
Versions: 1 2 3 4 5 6 7 8 9 10 11 12 13 14 15 16 17 18 19 20 21 22 23 24 25 26 27 28 29 30 31 32 33 34 35 36 37 38 39 40 41 42 43 44 45 46 47 48 49 50

000
ASUS45 KABQ 170001
RWRNM
NEW MEXICO REGIONAL WEATHER ROUNDUP
NATIONAL WEATHER SERVICE ALBUQUERQUE NM
500 PM MST MON JAN 16 2017

NOTE: "FAIR" MEANS FEW OR NO CLOUDS BELOW 12,000 FEET AGL WITH NO
       SIGNIFICANT WEATHER OR OBSTRUCTIONS TO VISION.

      THIS PRODUCT IS RELEASED AS TWO VERSIONS.  ONE VERSION NEAR
      THE TOP OF THE HOUR CONTAINING PRELIMINARY DATA FROM ALBUQUERQUE
      AND OTHER STATIONS.  A FINAL VERSION WITH ADDITIONAL DATA IS
      ISSUED ABOUT 10 MINUTES AFTER THE HOUR.

NMZ501-503-504-510>518-170100-
NORTHWEST PLATEAU/NORTHCENTRAL MOUNTAINS

CITY           SKY/WX    TMP DP  RH WIND       PRES   REMARKS
FARMINGTON     LGT RAIN  34  33  96 W7        30.01R WCI  28
6HR MIN TEMP:  34; 6HR MAX TEMP:  39; 6HR PCP:  0.05;

SANTA FE       CLOUDY    41  35  79 S6        30.01R
6HR MIN TEMP:  37; 6HR MAX TEMP:  44;

TAOS           CLOUDY    34  27  75 CALM      30.02R

$$
NMZ402-403-502-505>509-170100-
WESTCENTRAL MOUNTAINS/SOUTHWEST MOUNTAINS

CITY           SKY/WX    TMP DP  RH WIND       PRES   REMARKS
GALLUP         LGT RAIN  36  33  89 N8        30.01R WCI  30
6HR MIN TEMP:  36; 6HR MAX TEMP:  40; 6HR PCP:  0.07;

GRANTS         CLOUDY    39  34  81 CALM      30.02R
SILVER CITY    MOCLDY    45  36  69 W7        30.02R

$$
NMZ407-409-411-412-170100-
SOUTHERN DESERTS

CITY           SKY/WX    TMP DP  RH WIND       PRES   REMARKS
DEMING         FAIR      51  37  58 W9        30.00R
6HR MIN TEMP:  49; 6HR MAX TEMP:  53;

HOLLOMAN AFB   MOCLDY    52  37  58 S3        30.03R
ALAMOGORDO     FAIR      50  36  57 SW3       30.02R
T OR C         LGT RAIN  49  38  65 SE9       29.98R
6HR MIN TEMP:  41; 6HR MAX TEMP:  53; 6HR PCP: TRACE;


$$
NMZ519>523-170100-
CENTRAL VALLEYS/CENTRAL HIGHLANDS

CITY           SKY/WX    TMP DP  RH WIND       PRES   REMARKS
ALBUQUERQUE    MOCLDY    47  36  65 E6        30.00R
6HR MIN TEMP:  39; 6HR MAX TEMP:  48;

DOUBLE EAGLE   MOCLDY    45  36  70 S5        30.01R
CLINES CORNERS SNOW      32  31  96 E7        30.04R VSB 1/2 WCI  26
6HR MIN TEMP:  32; 6HR MAX TEMP:  40; 6HR PCP:  0.01;

BELEN          CLOUDY    44  38  80 S7        30.01R
6HR MIN TEMP:  44; 6HR MAX TEMP:  49;

SOCORRO        NOT AVBL

$$
NMZ524>526-539-540-170100-
SOUTHCENTRAL MOUNTAINS

CITY           SKY/WX    TMP DP  RH WIND       PRES   REMARKS
RUIDOSO        NOT AVBL

$$
NMZ527>531-170100-
NORTHEAST HIGHLANDS/NORTHEAST PLAINS

CITY           SKY/WX    TMP DP  RH WIND       PRES   REMARKS
LAS VEGAS      CLOUDY    33  31  92 S5        30.04R WCI  29
6HR MIN TEMP:  30; 6HR MAX TEMP:  38; 6HR PCP: TRACE;

RATON          MIX PCPN  33  25  72 N18G24    30.03R WCI  22
6HR MIN TEMP:  33; 6HR MAX TEMP:  36; 6HR PCP:  0.03;

CLAYTON        CLOUDY    34  33  96 N16G22    30.03R WCI  24
6HR MIN TEMP:  34; 6HR MAX TEMP:  35; 6HR PCP:  0.02;


$$
NMZ532>537-170100-
EASTCENTRAL PLAINS

CITY           SKY/WX    TMP DP  RH WIND       PRES   REMARKS
TUCUMCARI      CLOUDY    46  36  68 NE6       30.04R
6HR MIN TEMP:  41; 6HR MAX TEMP:  50;

CANNON AFB     CLOUDY    44  42  95 E8        30.03R
6HR MIN TEMP:  43; 6HR MAX TEMP:  49;

CLOVIS AIRPORT CLOUDY    46  34  61 E8        30.04R

$$
NMZ028-029-538-170100-
SOUTHEAST PLAINS

CITY           SKY/WX    TMP DP  RH WIND       PRES   REMARKS
ROSWELL        FAIR      56  36  47 NE5       29.97R
6HR MIN TEMP:  39; 6HR MAX TEMP:  60;

ARTESIA        FAIR      57  41  54 E7        29.97R
CARLSBAD       MOCLDY    59  37  44 W7        29.96R
6HR MIN TEMP:  51; 6HR MAX TEMP:  62;

HOBBS          CLEAR     55  36  47 S3        30.00R


$$



USA.gov is the U.S. government's official web portal to all federal, state and local government web resources and services.